Weather History for KTUL - February, 2013

Change the Weather History Date:

Sunday, February 10, 2013

  Actual Average Record
Temperature  
Mean Temperature 50 °F 41 °F  
Max Temperature 62 °F 52 °F 81 °F (1922)
Min Temperature 37 °F 30 °F -12 °F (2011)
Degree Days  
Heating Degree Days 15 24  
Month to date heating degree days 199 251  
Since 1 July heating degree days 2207 2524  
Moisture  
Dew Point 36 °F    
Average Humidity 63    
Maximum Humidity 100    
Minimum Humidity 25    
Precipitation  
Precipitation 0.07 in 0.06 in 2.00 in (1898)
Month to date precipitation 0.13 0.57  
Year to date precipitation 1.67 2.23  
Sea Level Pressure  
Sea Level Pressure 29.76 in    
Wind  
Wind Speed 14 mph (SW)    
Max Wind Speed 24 mph    
Max Gust Speed 31 mph    
Visibility 8 miles    
Events Rain , Thunderstorm    
T = Trace of Precipitation, MM = Missing Value Source: NWS Daily Summary

Daily Weather History Graph

Daily Weather History Graph

Search for Another Location

Airport or City:

Trip Planner

Search our weather history database for the weather conditions in past years. The results will help you decide how hot, cold, wet, or windy it might be!

Date:

Astronomy

Feb. 10, 2013 Rise Set
Actual Time 7:16 AM CST 5:59 PM CST
Civil Twilight 6:49 AM CST 6:26 PM CST
Nautical Twilight 6:19 AM CST 6:56 PM CST
Astronomical Twilight 5:49 AM CST 7:26 PM CST
Moon 7:08 AM CST (2/10) 6:48 PM CST (2/10)
Length of Visible Light 11h 36m
Length of Day
10h 43m
New Moon, 0% of the Moon is Illuminated
Feb 10
New Moon
Feb 17
First Quarter
Feb 25
Full
Mar 4
Last Quarter
Mar 11
New

Hourly Weather History & Observations

Time (CST) Temp. Windchill Dew Point Humidity Pressure Visibility Wind Dir Wind Speed Gust Speed Precip Events Conditions
12:53 AM 46.0 °F 39.9 °F 44.1 °F 93% 29.72 in 4.0 mi SSE 13.8 mph 25.3 mph 0.00 in   Light Drizzle
1:23 AM 46.4 °F 39.8 °F 44.6 °F 93% 29.71 in 3.0 mi SSE 16.1 mph - 0.01 in Rain , Thunderstorm Light Thunderstorms and Rain
1:33 AM 46.4 °F 40.4 °F 44.6 °F 93% 29.71 in 2.5 mi SSE 13.8 mph - 0.02 in Rain , Thunderstorm Light Thunderstorms and Rain
1:44 AM 46.4 °F 40.1 °F 44.6 °F 93% 29.70 in 4.0 mi SSE 15.0 mph - 0.02 in Rain , Thunderstorm Light Thunderstorms and Rain
1:53 AM 46.0 °F 39.9 °F 45.0 °F 96% 29.68 in 5.0 mi SSE 13.8 mph - 0.03 in Thunderstorm Overcast
2:00 AM 46.4 °F 40.4 °F 44.6 °F 93% 29.67 in 5.0 mi SSE 13.8 mph - 0.00 in Rain Light Rain
2:53 AM 46.9 °F - 45.0 °F 93% 29.65 in 6.0 mi SSE 12.7 mph 19.6 mph 0.00 in   Overcast
3:53 AM 46.9 °F - 46.0 °F 97% 29.63 in 7.0 mi SSE 12.7 mph - 0.00 in   Overcast
4:43 AM 48.2 °F - 46.4 °F 93% 29.64 in 4.0 mi South 6.9 mph - 0.03 in Rain Light Rain
4:53 AM 48.0 °F - 48.0 °F 100% 29.64 in 4.0 mi SSE 6.9 mph - 0.03 in   Overcast
5:53 AM 51.1 °F - 50.0 °F 96% 29.63 in 8.0 mi South 12.7 mph - N/A   Overcast
6:09 AM 53.6 °F - 51.8 °F 94% 29.63 in 10.0 mi SSW 13.8 mph - N/A   Mostly Cloudy
6:53 AM 52.0 °F - 50.0 °F 93% 29.64 in 10.0 mi SSW 11.5 mph - N/A   Partly Cloudy
7:53 AM 52.0 °F - 43.0 °F 71% 29.66 in 10.0 mi WSW 15.0 mph 20.7 mph N/A   Clear
8:53 AM 53.1 °F - 33.1 °F 47% 29.68 in 10.0 mi WSW 16.1 mph - N/A   Clear
9:53 AM 54.0 °F - 28.9 °F 38% 29.71 in 10.0 mi WSW 18.4 mph 27.6 mph N/A   Clear
10:53 AM 55.0 °F - 30.0 °F 38% 29.72 in 10.0 mi West 16.1 mph - N/A   Clear
11:53 AM 55.9 °F - 27.0 °F 33% 29.73 in 10.0 mi WSW 13.8 mph - N/A   Clear
12:53 PM 59.0 °F - 28.0 °F 31% 29.73 in 10.0 mi WSW 17.3 mph 24.2 mph N/A   Clear
1:53 PM 60.1 °F - 28.0 °F 30% 29.73 in 10.0 mi SW 17.3 mph 23.0 mph N/A   Clear
2:53 PM 61.0 °F - 28.0 °F 29% 29.72 in 10.0 mi WSW 17.3 mph 26.5 mph N/A   Clear
3:53 PM 61.0 °F - 25.0 °F 25% 29.74 in 10.0 mi WSW 21.9 mph 27.6 mph N/A   Clear
4:53 PM 61.0 °F - 25.0 °F 25% 29.77 in 10.0 mi West 16.1 mph - N/A   Clear
5:53 PM 55.9 °F - 23.0 °F 28% 29.82 in 10.0 mi WNW 20.7 mph 26.5 mph N/A   Clear
6:53 PM 53.1 °F - 26.1 °F 35% 29.89 in 10.0 mi WNW 13.8 mph - N/A   Clear
7:53 PM 48.0 °F - 27.0 °F 44% 29.96 in 10.0 mi NW 12.7 mph - N/A   Clear
8:53 PM 46.9 °F - 27.0 °F 46% 30.01 in 10.0 mi NW 11.5 mph - N/A   Clear
9:53 PM 42.1 °F 37.7 °F 27.0 °F 55% 30.04 in 10.0 mi NW 6.9 mph - N/A   Clear
10:53 PM 39.9 °F 35.1 °F 26.1 °F 58% 30.06 in 10.0 mi NW 6.9 mph - N/A   Clear
11:53 PM 39.9 °F 36.7 °F 26.1 °F 58% 30.06 in 10.0 mi NNW 4.6 mph - N/A   Clear